Tracking 29892 objects as of 21-Nov-2024
HD Live streaming from Space Station
objects crossing your sky now

CZ-6A DEB

Track CZ-6A DEB now!
10-day predictions


NORAD ID: 54345
Int'l Code: 2022-151CQ
Perigee: 735.7 km
Apogee: 827.7 km
Inclination: 98.7 °
Period: 100.3 minutes
Semi major axis: 7152 km
RCS: Unknown
Launch date: November 11, 2022
Source: People's Republic of China (PRC)
Launch site: Taiyaun Space Center, China (TSC)

Note: This is SATELLITE DEBRIS
Your satellite tracking list
Your tracking list is empty




NASA's NSSDC Master Catalog

Two Line Element Set (TLE):
1 54345U 22151CQ  24324.95244366  .00016563  00000-0  56673-2 0  9996
2 54345  98.6942 335.0276 0064325 346.5642  13.3828 14.35140822104782
Source of the keplerian elements: AFSPC